AC5JC-1 Weather Reports


Display with metric or nautical units.
time (UTC)temp
F
wind
direction
speed
MPH
gust
MPH
rain 1hr
in
rain 24hr
in
rain mn
in
humidity
%
barometer
mb
20260508004048 67 0.0 0.0 0.00 0.00 0.00 66 1015.0
20260508003534 67 108 0.0 1.0 0.00 0.00 0.00 65 1015.2
20260508003055 68 0.0 0.0 0.00 0.00 0.00 66 1015.0
20260508002535 68 0.0 0.0 0.00 0.00 0.00 65 1015.1
20260508002032 68 114 0.0 1.0 0.00 0.00 0.00 63 1015.2
20260508001636 69 106 0.0 1.0 0.00 0.00 0.00 63 1015.3
20260508001136 69 93 0.0 1.0 0.00 0.00 0.00 62 1015.3
20260508000534 69 116 1.0 2.0 0.00 0.00 0.00 62 1015.2
20260508000035 70 110 0.0 1.0 0.00 0.00 0.00 61 1015.3
20260507235534 71 101 0.0 1.0 0.00 0.00 0.00 60 1015.4
20260507235034 71 116 0.0 1.0 0.00 0.00 0.00 60 1015.5
20260507234521 71 108 0.0 1.0 0.00 0.00 0.00 60 1015.4
20260507234104 72 112 1.0 1.0 0.00 0.00 0.00 58 1015.4
20260507233535 73 111 1.0 2.0 0.00 0.00 0.00 56 1015.4
20260507233035 73 109 0.0 1.0 0.00 0.00 0.00 54 1015.3
20260507232522 74 94 0.0 1.0 0.00 0.00 0.00 54 1015.4
20260507232104 75 82 1.0 2.0 0.00 0.00 0.00 52 1015.4
20260507231545 75 110 1.0 1.0 0.00 0.00 0.00 51 1015.4
20260507231034 75 92 0.0 2.0 0.00 0.00 0.00 53 1015.4
20260507230534 74 88 0.0 1.0 0.00 0.00 0.00 55 1015.5
20260507230035 73 139 0.0 1.0 0.00 0.00 0.00 55 1015.6
20260507225555 73 141 0.0 1.0 0.00 0.00 0.00 54 1015.6
20260507225034 74 71 0.0 1.0 0.00 0.00 0.00 53 1015.6
20260507224520 74 85 0.0 1.0 0.00 0.00 0.00 53 1015.8
20260507224104 73 71 0.0 2.0 0.00 0.00 0.00 53 1015.6
20260507223544 72 77 1.0 3.0 0.00 0.00 0.00 53 1015.7
20260507223035 72 79 0.0 1.0 0.00 0.00 0.00 54 1015.6
20260507222534 72 67 1.0 2.0 0.00 0.00 0.00 53 1015.8
20260507222054 73 86 0.0 1.0 0.00 0.00 0.00 54 1015.9
20260507221535 73 0.0 0.0 0.00 0.00 0.00 54 1015.8
20260507221034 73 81 1.0 1.0 0.00 0.00 0.00 51 1015.8
20260507220554 73 69 1.0 2.0 0.00 0.00 0.00 54 1015.9
20260507220120 72 0.0 0.0 0.00 0.00 0.00 54 1016.0
20260507215600 72 78 0.0 1.0 0.00 0.00 0.00 55 1015.9
20260507215035 72 64 1.0 3.0 0.00 0.00 0.00 53 1015.9
20260507214534 73 136 0.0 2.0 0.00 0.00 0.00 54 1016.1
20260507214141 73 105 0.0 1.0 0.00 0.00 0.00 55 1016.2
20260507213600 73 111 0.0 1.0 0.00 0.00 0.00 52 1016.2
20260507213034 73 111 0.0 1.0 0.00 0.00 0.00 53 1016.2
20260507212535 73 0.0 0.0 0.00 0.00 0.00 55 1016.3
20260507212055 73 86 0.0 1.0 0.00 0.00 0.00 52 1016.2
20260507211534 73 74 1.0 1.0 0.00 0.00 0.00 52 1016.5
20260507211034 73 39 1.0 1.0 0.00 0.00 0.00 51 1016.6
20260507210534 73 94 1.0 3.0 0.00 0.00 0.00 51 1016.7
20260507210055 74 60 1.0 5.0 0.00 0.00 0.00 52 1016.7
20260507205554 75 72 1.0 2.0 0.00 0.00 0.00 51 1016.6
20260507205025 75 74 1.0 2.0 0.00 0.00 0.00 49 1016.6
20260507204608 74 56 1.0 2.0 0.00 0.00 0.00 50 1016.5
20260507204048 74 63 1.0 2.0 0.00 0.00 0.00 51 1016.4
20260507203534 74 69 3.0 6.0 0.00 0.00 0.00 51 1016.4
20260507203035 74 38 1.0 2.0 0.00 0.00 0.00 52 1016.4
20260507202535 74 55 1.0 3.0 0.00 0.00 0.00 51 1016.5
20260507202114 74 52 2.0 3.0 0.00 0.00 0.00 51 1016.7
20260507201535 74 73 1.0 2.0 0.00 0.00 0.00 51 1016.8
20260507201034 74 102 1.0 3.0 0.00 0.00 0.00 51 1016.8
20260507200534 74 40 1.0 3.0 0.00 0.00 0.00 51 1016.8
20260507200034 74 63 1.0 2.0 0.00 0.00 0.00 50 1016.9
20260507195534 73 15 1.0 2.0 0.00 0.00 0.00 51 1017.1
20260507195034 73 44 3.0 5.0 0.00 0.00 0.00 51 1017.1
20260507194534 74 82 3.0 8.0 0.00 0.00 0.00 51 1017.3
20260507194033 74 76 1.0 2.0 0.00 0.00 0.00 52 1017.2
20260507193534 73 78 0.0 1.0 0.00 0.00 0.00 51 1017.2
20260507193046 73 64 2.0 5.0 0.00 0.00 0.00 51 1017.5
20260507192608 74 36 3.0 5.0 0.00 0.00 0.00 51 1017.6
20260507192114 73 44 1.0 3.0 0.00 0.00 0.00 52 1017.4
20260507191535 72 72 2.0 2.0 0.00 0.00 0.00 52 1017.7
20260507191034 73 64 2.0 5.0 0.00 0.00 0.00 53 1017.8
20260507190634 73 145 1.0 2.0 0.00 0.00 0.00 53 1017.8
20260507190033 72 35 2.0 5.0 0.00 0.00 0.00 53 1017.9
20260507185600 72 69 2.0 7.0 0.00 0.00 0.00 52 1017.9
20260507185025 72 69 1.0 5.0 0.00 0.00 0.00 51 1017.9
20260507184537 71 42 2.0 5.0 0.00 0.00 0.00 54 1017.9
20260507184034 71 75 3.0 6.0 0.00 0.00 0.00 51 1017.8
20260507183600 71 47 3.0 7.0 0.00 0.00 0.00 52 1017.9
20260507183026 71 50 2.0 5.0 0.00 0.00 0.00 53 1018.0
20260507182552 71 35 3.0 6.0 0.00 0.00 0.00 53 1018.0
20260507182104 71 38 2.0 5.0 0.00 0.00 0.00 54 1018.1
20260507181546 70 54 3.0 6.0 0.00 0.00 0.00 54 1018.2
20260507181025 71 66 2.0 7.0 0.00 0.00 0.00 55 1018.3
20260507180609 70 3 3.0 5.0 0.00 0.00 0.00 55 1018.4
20260507180034 70 32 3.0 7.0 0.00 0.00 0.00 54 1018.4
20260507175601 70 37 2.0 6.0 0.00 0.00 0.00 56 1018.6
20260507175034 69 45 2.0 3.0 0.00 0.00 0.00 55 1018.7
20260507174535 69 39 2.0 5.0 0.00 0.00 0.00 56 1018.8
20260507174034 69 61 2.0 5.0 0.00 0.00 0.00 55 1019.0
20260507173535 69 42 2.0 6.0 0.00 0.00 0.00 58 1019.1
20260507173035 68 57 3.0 5.0 0.00 0.00 0.00 57 1019.2
20260507172534 68 64 2.0 5.0 0.00 0.00 0.00 56 1019.4
20260507172034 68 50 2.0 3.0 0.00 0.00 0.00 56 1019.5
20260507171534 68 63 2.0 3.0 0.00 0.00 0.00 58 1019.6
20260507171034 67 65 1.0 5.0 0.00 0.00 0.00 59 1019.9
20260507170614 68 82 3.0 7.0 0.00 0.00 0.00 58 1020.0
20260507170104 68 45 2.0 5.0 0.00 0.00 0.00 58 1020.0
20260507165616 67 73 1.0 3.0 0.00 0.00 0.00 59 1020.1
20260507165040 67 49 4.0 9.0 0.00 0.00 0.00 60 1020.1
20260507164535 67 68 2.0 5.0 0.00 0.00 0.00 58 1020.2
20260507164034 67 45 3.0 6.0 0.00 0.00 0.00 60 1020.3
20260507163535 66 60 1.0 5.0 0.00 0.00 0.00 61 1020.3
20260507163035 65 69 2.0 6.0 0.00 0.00 0.00 62 1020.2
20260507162534 66 78 2.0 5.0 0.00 0.00 0.00 61 1020.3
20260507162034 66 72 1.0 2.0 0.00 0.00 0.00 63 1020.2
20260507161535 65 85 1.0 3.0 0.00 0.00 0.00 62 1020.3
20260507161034 65 52 2.0 7.0 0.00 0.00 0.00 63 1020.2
20260507160534 65 50 2.0 5.0 0.00 0.00 0.00 64 1020.2
20260507160034 65 11 2.0 6.0 0.00 0.00 0.00 64 1020.4
20260507155641 65 55 3.0 5.0 0.00 0.00 0.00 64 1020.3
20260507155055 64 88 2.0 5.0 0.00 0.00 0.00 66 1020.3
20260507154534 64 68 2.0 6.0 0.00 0.00 0.00 67 1020.4
20260507154035 63 36 3.0 5.0 0.00 0.00 0.00 68 1020.3
20260507153529 62 54 3.0 6.0 0.00 0.00 0.00 68 1020.5
20260507153112 62 55 1.0 3.0 0.00 0.00 0.00 71 1020.4
20260507152553 62 50 2.0 3.0 0.00 0.00 0.00 70 1020.6
20260507152033 61 73 1.0 3.0 0.00 0.00 0.00 72 1020.7
20260507151616 61 75 1.0 3.0 0.00 0.01 0.00 71 1020.6
20260507151057 62 75 1.0 3.0 0.00 0.02 0.00 72 1020.6
20260507150534 61 72 1.0 3.0 0.00 0.04 0.00 73 1020.8
20260507150121 60 79 1.0 2.0 0.00 0.04 0.00 74 1020.9
20260507145600 60 84 1.0 2.0 0.00 0.05 0.00 75 1020.8
20260507145041 61 72 1.0 3.0 0.00 0.06 0.00 76 1020.7
20260507144522 61 85 1.0 2.0 0.00 0.06 0.00 75 1020.7
20260507144104 61 67 1.0 3.0 0.00 0.06 0.00 78 1020.8
20260507143544 59 66 1.0 2.0 0.00 0.06 0.00 82 1020.8
20260507143034 59 66 1.0 2.0 0.00 0.06 0.00 84 1021.0
20260507142554 58 38 1.0 1.0 0.00 0.07 0.00 86 1020.9
20260507142035 57 32 1.0 1.0 0.00 0.07 0.00 87 1021.0
20260507141534 57 71 1.0 2.0 0.00 0.07 0.00 87 1021.0
20260507141034 56 52 0.0 2.0 0.00 0.07 0.00 88 1021.0
20260507140534 56 33 1.0 2.0 0.00 0.07 0.00 87 1021.1
20260507140035 56 3 0.0 1.0 0.00 0.07 0.00 87 1021.1
20260507135534 55 23 1.0 2.0 0.00 0.07 0.00 87 1021.2
20260507135034 55 47 0.0 1.0 0.00 0.07 0.00 87 1021.2
20260507134535 54 57 0.0 1.0 0.00 0.07 0.00 88 1021.2
20260507134034 54 40 1.0 2.0 0.00 0.07 0.00 88 1021.1
20260507133534 55 65 1.0 2.0 0.00 0.07 0.00 88 1021.1
20260507133034 54 70 0.0 1.0 0.00 0.07 0.00 89 1021.3
20260507132554 54 48 0.0 1.0 0.00 0.07 0.00 91 1021.3
20260507132120 53 74 0.0 1.0 0.00 0.07 0.00 91 1021.2
20260507131601 53 69 0.0 1.0 0.00 0.07 0.00 92 1021.1
20260507131034 53 42 0.0 1.0 0.00 0.07 0.00 92 1021.2
20260507130555 52 68 0.0 1.0 0.00 0.07 0.00 93 1021.1
20260507130035 52 72 0.0 1.0 0.00 0.07 0.00 94 1021.0
20260507125534 52 355 1.0 2.0 0.00 0.07 0.00 95 1020.9
20260507125034 51 75 0.0 1.0 0.00 0.07 0.00 96 1021.0
20260507124534 51 55 0.0 1.0 0.00 0.07 0.00 97 1020.8
20260507124033 50 0.0 0.0 0.00 0.07 0.00 97 1020.8
20260507123637 50 60 0.0 1.0 0.00 0.07 0.00 98 1020.7
20260507123056 50 60 0.0 1.0 0.00 0.07 0.00 98 1020.7
20260507122534 50 0.0 0.0 0.00 0.07 0.00 98 1020.6
20260507122121 50 0.0 0.0 0.00 0.07 0.00 98 1020.6
20260507121601 50 0.0 0.0 0.00 0.07 0.00 98 1020.6
20260507121035 50 64 0.0 1.0 0.00 0.07 0.00 98 1020.5
20260507120534 50 0.0 0.0 0.00 0.07 0.00 98 1020.4
20260507120055 50 0.0 0.0 0.00 0.07 0.00 98 1020.3
20260507115534 50 0.0 0.0 0.00 0.07 0.00 98 1020.3
20260507115045 50 0.0 0.0 0.00 0.07 0.00 98 1020.2
20260507114609 49 94 0.0 1.0 0.00 0.07 0.00 98 1020.2
20260507114049 49 0.0 0.0 0.00 0.07 0.00 98 1020.2
20260507113530 49 0.0 0.0 0.00 0.07 0.00 97 1020.4
20260507113113 49 0.0 0.0 0.00 0.07 0.00 97 1020.2
20260507112553 50 0.0 0.0 0.00 0.07 0.00 97 1020.4
20260507112034 50 0.0 0.0 0.00 0.07 0.00 97 1020.3
20260507111617 50 0.0 0.0 0.00 0.07 0.00 97 1020.3
20260507111057 50 96 0.0 1.0 0.00 0.07 0.00 97 1020.1
20260507110554 50 81 0.0 1.0 0.00 0.07 0.00 97 1020.6
20260507110034 50 76 0.0 1.0 0.00 0.07 0.00 97 1020.5
20260507105534 50 80 0.0 1.0 0.00 0.07 0.00 97 1020.5
20260507105045 50 0.0 0.0 0.00 0.07 0.00 97 1020.3
20260507104609 50 0.0 0.0 0.00 0.07 0.00 97 1020.2
20260507104049 50 0.0 0.0 0.00 0.07 0.00 97 1020.0
20260507103614 50 0.0 0.0 0.00 0.07 0.00 97 1020.1
20260507103055 50 0.0 0.0 0.00 0.07 0.00 96 1020.0
20260507102534 50 0.0 0.0 0.00 0.07 0.00 96 1019.8
20260507102033 50 0.0 0.0 0.00 0.07 0.00 96 1019.8
20260507101637 50 0.0 0.0 0.00 0.07 0.00 96 1019.7
20260507101057 50 0.0 0.0 0.00 0.07 0.00 96 1019.5
20260507100534 50 0.0 0.0 0.00 0.07 0.00 95 1019.5
20260507100035 50 0.0 0.0 0.00 0.07 0.00 95 1019.2
20260507095534 50 0.0 0.0 0.00 0.07 0.00 95 1019.4
20260507095034 51 0.0 0.0 0.00 0.07 0.00 95 1019.3
20260507094522 51 0.0 0.0 0.00 0.07 0.00 95 1019.3
20260507094105 51 74 0.0 1.0 0.00 0.07 0.00 94 1019.1
20260507093535 51 0.0 0.0 0.00 0.07 0.00 94 1019.0
20260507093034 51 61 0.0 1.0 0.00 0.07 0.00 94 1019.0
20260507092534 51 69 0.0 1.0 0.00 0.07 0.00 94 1018.7
20260507092034 51 47 1.0 2.0 0.00 0.07 0.00 94 1018.6
20260507091550 51 55 1.0 2.0 0.00 0.07 0.00 94 1018.5
20260507091133 51 48 1.0 2.0 0.00 0.07 0.00 94 1018.4
20260507090553 51 48 1.0 2.0 0.00 0.07 0.00 94 1018.3
20260507090035 51 54 1.0 2.0 0.00 0.07 0.00 94 1018.3
20260507085534 51 47 1.0 3.0 0.00 0.07 0.00 94 1018.5
20260507085034 51 45 1.0 2.0 0.00 0.07 0.00 95 1018.4
20260507084522 51 70 0.0 1.0 0.00 0.07 0.00 94 1018.6
20260507084105 51 60 0.0 1.0 0.00 0.07 0.00 94 1018.6
20260507083545 51 69 0.0 1.0 0.00 0.07 0.00 95 1018.6
20260507083035 51 71 0.0 1.0 0.00 0.07 0.00 95 1018.6
20260507082554 51 0.0 0.0 0.00 0.07 0.00 95 1018.7
20260507082033 51 0.0 0.0 0.00 0.07 0.00 95 1018.7
20260507081610 51 70 0.0 1.0 0.00 0.07 0.00 95 1018.7
20260507081113 51 0.0 0.0 0.00 0.07 0.00 95 1018.5
20260507080553 51 0.0 0.0 0.00 0.07 0.00 95 1018.7
20260507080034 51 0.0 0.0 0.00 0.07 0.00 94 1018.6
20260507075534 51 0.0 0.0 0.00 0.07 0.00 94 1018.7
20260507075054 51 0.0 0.0 0.00 0.07 0.00 94 1018.4
20260507074555 52 0.0 0.0 0.00 0.07 0.00 94 1018.4
20260507074121 51 0.0 0.0 0.00 0.07 0.00 94 1018.3
20260507073601 52 0.0 0.0 0.00 0.07 0.00 94 1018.3
20260507073035 52 31 1.0 2.0 0.00 0.07 0.00 94 1018.2
20260507072534 51 48 1.0 5.0 0.00 0.07 0.00 94 1018.2
20260507072033 51 54 1.0 2.0 0.00 0.07 0.00 94 1018.2
20260507071535 51 55 0.0 2.0 0.00 0.07 0.00 94 1018.4
20260507071113 52 0.0 0.0 0.00 0.07 0.00 94 1018.5
20260507070553 52 64 0.0 1.0 0.00 0.07 0.00 94 1018.5
20260507070035 52 72 0.0 1.0 0.00 0.07 0.00 93 1018.4
20260507065554 52 66 0.0 1.0 0.00 0.07 0.00 93 1018.5
20260507065034 52 67 0.0 1.0 0.00 0.07 0.00 93 1018.4
20260507064615 52 67 0.0 1.0 0.00 0.07 0.00 93 1018.2
20260507064121 52 0.0 0.0 0.00 0.07 0.00 93 1018.3
20260507063602 52 0.0 0.0 0.00 0.07 0.00 92 1018.3
20260507063102 52 0.0 0.0 0.00 0.07 0.00 92 1018.1
20260507062554 53 0.0 0.0 0.00 0.07 0.00 92 1018.2
20260507062033 53 0.0 0.0 0.00 0.07 0.00 91 1018.1
20260507061535 53 0.0 0.0 0.00 0.07 0.00 90 1018.1
20260507061034 53 0.0 0.0 0.00 0.07 0.00 90 1018.1
20260507060542 53 0.0 0.0 0.00 0.07 0.00 89 1017.9
20260507060105 54 70 0.0 1.0 0.00 0.07 0.00 89 1017.9
20260507055545 54 69 0.0 1.0 0.00 0.07 0.00 89 1017.9
20260507055025 54 0.0 0.0 0.00 0.07 0.00 88 1018.0
20260507054609 54 0.0 0.0 0.00 0.07 0.00 88 1017.9
20260507054049 54 0.0 0.0 0.00 0.07 0.00 87 1017.8
20260507053530 55 72 0.0 1.0 0.00 0.07 0.00 87 1017.8
20260507053113 55 74 0.0 1.0 0.00 0.07 0.00 86 1018.0
20260507052613 55 29 1.0 3.0 0.00 0.07 0.00 86 1017.9
20260507052034 55 69 0.0 1.0 0.00 0.07 0.00 86 1017.8
20260507051657 55 76 0.0 1.0 0.00 0.07 0.00 85 1017.8
20260507051057 55 64 0.0 2.0 0.00 0.07 0.00 85 1017.8
20260507050534 56 52 1.0 2.0 0.00 0.07 0.00 84 1017.8
20260507050121 56 76 1.0 2.0 0.00 0.07 0.00 84 1017.6
20260507045601 56 65 1.0 2.0 0.00 0.07 0.07 84 1017.6
20260507045041 56 59 1.0 2.0 0.00 0.07 0.07 84 1017.7
20260507044522 56 65 1.0 2.0 0.00 0.07 0.07 84 1017.6
20260507044105 56 74 0.0 1.0 0.00 0.07 0.07 84 1017.8
20260507043546 56 80 0.0 2.0 0.00 0.07 0.07 84 1017.8
20260507043027 56 69 0.0 1.0 0.00 0.07 0.07 83 1017.7
20260507042609 56 72 1.0 2.0 0.00 0.07 0.07 83 1017.9
20260507042049 57 74 1.0 3.0 0.00 0.07 0.07 82 1017.9
20260507041551 57 76 2.0 2.0 0.00 0.07 0.07 82 1017.9
20260507041113 57 74 2.0 5.0 0.00 0.07 0.07 82 1017.8
20260507040553 57 66 1.0 2.0 0.00 0.07 0.07 82 1018.0
20260507040034 57 68 1.0 3.0 0.00 0.07 0.07 81 1017.9
20260507035617 57 68 1.0 2.0 0.00 0.07 0.07 81 1018.0
20260507035057 57 77 1.0 2.0 0.00 0.07 0.07 81 1018.0
20260507034535 57 60 2.0 3.0 0.00 0.07 0.07 81 1018.0
20260507034122 57 71 2.0 3.0 0.00 0.07 0.07 81 1017.8
20260507033601 57 73 3.0 6.0 0.00 0.07 0.07 80 1017.9
20260507033042 58 73 1.0 3.0 0.00 0.07 0.07 80 1017.8
20260507032522 58 64 2.0 2.0 0.00 0.07 0.07 80 1017.8
20260507032035 58 73 3.0 6.0 0.00 0.07 0.07 79 1017.8
20260507031633 58 30 2.0 5.0 0.00 0.07 0.07 79 1017.7
20260507031057 58 76 2.0 3.0 0.00 0.07 0.07 79 1017.8
20260507030555 59 50 2.0 3.0 0.00 0.07 0.07 79 1017.8
20260507030121 59 62 1.0 3.0 0.00 0.07 0.07 79 1017.7
20260507025601 59 40 2.0 5.0 0.00 0.07 0.07 78 1017.7
20260507025046 59 47 1.0 3.0 0.00 0.07 0.07 78 1017.6
20260507024553 59 38 2.0 3.0 0.00 0.07 0.07 78 1017.5
20260507024121 59 40 2.0 5.0 0.00 0.07 0.07 78 1017.4
20260507023601 59 33 3.0 6.0 0.00 0.07 0.07 77 1017.4
20260507023041 59 43 2.0 3.0 0.00 0.07 0.07 78 1017.3
20260507022522 59 57 2.0 3.0 0.00 0.07 0.07 78 1017.2
20260507022105 60 42 1.0 2.0 0.00 0.07 0.07 77 1017.2
20260507021546 60 38 3.0 6.0 0.00 0.07 0.07 77 1017.1
20260507021026 60 31 2.0 5.0 0.00 0.07 0.07 77 1016.9
20260507020609 60 47 2.0 3.0 0.00 0.07 0.07 77 1016.8
20260507020114 60 56 2.0 3.0 0.00 0.07 0.07 76 1016.9
20260507015601 60 37 3.0 6.0 0.00 0.07 0.07 76 1016.8
20260507015101 61 56 2.0 6.0 0.00 0.07 0.07 77 1016.6
20260507014522 61 44 2.0 5.0 0.00 0.07 0.07 77 1016.4
20260507014034 61 31 3.0 7.0 0.00 0.07 0.07 77 1016.3
20260507013601 61 49 2.0 7.0 0.00 0.07 0.07 77 1016.3
20260507013042 61 41 2.0 3.0 0.00 0.07 0.07 76 1016.0
20260507012542 61 51 2.0 3.0 0.00 0.07 0.07 76 1015.9
20260507012049 61 40 2.0 3.0 0.00 0.07 0.07 76 1015.8
20260507011531 61 43 2.0 5.0 0.00 0.07 0.07 75 1015.7
20260507011042 62 37 2.0 6.0 0.00 0.07 0.07 75 1015.6
20260507010522 62 45 2.0 5.0 0.00 0.07 0.07 75 1015.6
20260507010035 62 46 2.0 3.0 0.00 0.07 0.07 75 1015.5
20260507005617 62 53 3.0 5.0 0.00 0.07 0.07 74 1015.5
20260507005041 62 39 2.0 5.0 0.00 0.07 0.07 74 1015.4
20260507004609 62 35 3.0 6.0 0.00 0.07 0.07 74 1015.4